Location: Pcim
(49.7500°N, 19.9670°E)
Time: 09:29:07
(UTC+02:00)

EO-79 - Pass Details

Date: 26 April 2024
Orbit: 563 x 574 km, 98.0° (Epoch: 20 May)

Event Time Altitude Azimuth Distance (km) Brightness Sun altitude
Rises 04:44:14 0° 6° (N) 2,802 ? -6.8°
Reaches altitude 10° 04:46:32 10° 357° (N) 1,900 ? -6.5°
Maximum altitude 04:50:12 32° 294° (WNW) 1,006 ? -6.0°
Drops below altitude 10° 04:53:51 10° 231° (SW) 1,890 ? -5.5°
Enters shadow 04:54:48 - 226° (SW) 2,254 ? -5.3°
